Time,TemperatureF,DewpointF,PressureIn,WindDirection,WindDirectionDegrees,WindSpeedMPH,WindSpeedGustMPH,Humidity,HourlyPrecipIn,Conditions,Clouds,dailyrainin,SoftwareType,DateUTC
2013-07-07 00:04:00,60.1,38.1,29.35,SW,223,0.0,0.0,44,0.00,,FEW100,0.00,VWS V14.00,2013-07-07 07:04:00,
2013-07-07 00:10:00,60.1,38.1,29.35,WNW,289,0.0,0.0,44,0.00,,FEW100,0.00,VWS V14.00,2013-07-07 07:10:00,
2013-07-07 00:16:00,60.4,38.4,29.35,WNW,289,0.0,0.0,44,0.00,,FEW100,0.00,VWS V14.00,2013-07-07 07:16:00,
2013-07-07 00:21:00,60.4,37.9,29.35,WNW,289,0.0,0.0,43,0.00,,FEW100,0.00,VWS V14.00,2013-07-07 07:21:00,
2013-07-07 00:27:00,60.6,38.0,29.35,WNW,289,0.0,0.0,43,0.00,,FEW100,0.00,VWS V14.00,2013-07-07 07:27:00,
2013-07-07 00:32:00,60.4,37.3,29.35,WNW,289,0.0,0.0,42,0.00,,FEW100,0.00,VWS V14.00,2013-07-07 07:32:00,
2013-07-07 00:37:00,60.3,37.1,29.35,WNW,289,0.0,0.0,42,0.00,,FEW100,0.00,VWS V14.00,2013-07-07 07:37:00,
2013-07-07 00:42:00,60.1,36.9,29.35,WNW,289,0.0,0.0,42,0.00,,FEW100,0.00,VWS V14.00,2013-07-07 07:42:00,
2013-07-07 00:48:00,59.9,36.8,29.35,WNW,289,0.0,0.0,42,0.00,,FEW100,0.00,VWS V14.00,2013-07-07 07:48:00,
2013-07-07 00:53:00,59.7,36.6,29.35,WNW,289,0.0,0.0,42,0.00,,FEW100,0.00,VWS V14.00,2013-07-07 07:53:00,
2013-07-07 00:58:00,59.4,36.3,29.35,WNW,289,0.0,0.0,42,0.00,,FEW100,0.00,VWS V14.00,2013-07-07 07:58:00,
2013-07-07 01:04:00,59.2,36.1,29.35,WNW,289,0.0,0.0,42,0.00,,FEW100,0.00,VWS V14.00,2013-07-07 08:04:00,
2013-07-07 01:10:00,59.0,36.0,29.35,WNW,289,0.0,0.0,42,0.00,,FEW100,0.00,VWS V14.00,2013-07-07 08:10:00,
2013-07-07 01:15:00,58.8,36.4,29.35,WNW,289,0.0,0.0,43,0.00,,FEW100,0.00,VWS V14.00,2013-07-07 08:15:00,
2013-07-07 01:20:00,58.6,36.2,29.35,WNW,297,0.0,0.0,43,0.00,,FEW100,0.00,VWS V14.00,2013-07-07 08:20:00,
2013-07-07 01:26:00,58.8,36.4,29.35,NW,319,0.0,0.0,43,0.00,,FEW100,0.00,VWS V14.00,2013-07-07 08:26:00,
2013-07-07 01:31:00,59.2,36.1,29.35,NW,314,0.0,0.0,42,0.00,,FEW100,0.00,VWS V14.00,2013-07-07 08:31:00,
2013-07-07 01:37:00,59.5,35.8,29.35,NW,314,0.0,0.0,41,0.00,,FEW100,0.00,VWS V14.00,2013-07-07 08:37:00,
2013-07-07 01:42:00,59.7,36.0,29.35,NW,314,0.0,0.0,41,0.00,,FEW100,0.00,VWS V14.00,2013-07-07 08:42:00,
2013-07-07 01:47:00,59.7,35.4,29.35,NW,314,0.0,0.0,40,0.00,,FEW100,0.00,VWS V14.00,2013-07-07 08:47:00,
2013-07-07 01:52:00,59.5,35.2,29.35,NW,314,0.0,0.0,40,0.00,,FEW100,0.00,VWS V14.00,2013-07-07 08:52:00,
2013-07-07 01:58:00,59.2,34.9,29.35,NW,314,0.0,0.0,40,0.00,,FEW100,0.00,VWS V14.00,2013-07-07 08:58:00,
2013-07-07 02:03:00,59.0,35.3,29.35,NW,314,0.0,0.0,41,0.00,,BKN100,0.00,VWS V14.00,2013-07-07 09:03:00,
2013-07-07 02:09:00,58.6,35.0,29.35,NW,314,0.0,0.0,41,0.00,,BKN100,0.00,VWS V14.00,2013-07-07 09:09:00,
2013-07-07 02:15:00,58.5,35.5,29.35,NW,314,0.0,0.0,42,0.00,,BKN100,0.00,VWS V14.00,2013-07-07 09:15:00,
2013-07-07 02:20:00,58.3,35.3,29.35,NW,314,0.0,0.0,42,0.00,,BKN100,0.00,VWS V14.00,2013-07-07 09:20:00,
2013-07-07 02:26:00,58.1,35.7,29.35,NW,314,0.0,0.0,43,0.00,,BKN100,0.00,VWS V14.00,2013-07-07 09:26:00,
2013-07-07 02:31:00,58.1,36.3,29.35,NW,314,0.0,0.0,44,0.00,,BKN100,0.00,VWS V14.00,2013-07-07 09:31:00,
2013-07-07 02:37:00,57.9,36.2,29.35,NW,314,0.0,0.0,44,0.00,,BKN100,0.00,VWS V14.00,2013-07-07 09:37:00,
2013-07-07 02:43:00,57.7,36.6,29.35,NW,314,0.0,0.0,45,0.00,,BKN100,0.00,VWS V14.00,2013-07-07 09:43:00,
2013-07-07 02:48:00,57.7,36.6,29.35,NW,314,0.0,0.0,45,0.00,,BKN100,0.00,VWS V14.00,2013-07-07 09:48:00,
2013-07-07 02:54:00,57.6,37.0,29.35,NW,314,0.0,0.0,46,0.00,,BKN100,0.00,VWS V14.00,2013-07-07 09:54:00,
2013-07-07 02:59:00,57.4,36.8,29.35,NW,314,0.0,0.0,46,0.00,,BKN100,0.00,VWS V14.00,2013-07-07 09:59:00,
2013-07-07 03:05:00,57.2,36.6,29.35,NW,314,0.0,0.0,46,0.00,,SCT100,0.00,VWS V14.00,2013-07-07 10:05:00,
2013-07-07 03:10:00,57.0,37.0,29.35,NW,314,0.0,0.0,47,0.00,,SCT100,0.00,VWS V14.00,2013-07-07 10:10:00,
2013-07-07 03:16:00,56.8,36.8,29.35,NW,314,0.0,0.0,47,0.00,,SCT100,0.00,VWS V14.00,2013-07-07 10:16:00,
2013-07-07 03:22:00,56.7,37.2,29.35,NW,314,0.0,0.0,48,0.00,,SCT100,0.00,VWS V14.00,2013-07-07 10:22:00,
2013-07-07 03:27:00,56.5,37.0,29.35,NW,314,0.0,0.0,48,0.00,,SCT100,0.00,VWS V14.00,2013-07-07 10:27:00,
2013-07-07 03:32:00,56.5,37.0,29.35,NW,314,0.0,0.0,48,0.00,,SCT100,0.00,VWS V14.00,2013-07-07 10:32:00,
2013-07-07 03:37:00,56.3,37.4,29.35,NW,314,0.0,0.0,49,0.00,,SCT100,0.00,VWS V14.00,2013-07-07 10:37:00,
2013-07-07 03:43:00,56.3,37.4,29.35,NW,314,0.0,0.0,49,0.00,,SCT100,0.00,VWS V14.00,2013-07-07 10:43:00,
2013-07-07 03:48:00,56.3,37.9,29.35,NW,314,0.0,0.0,50,0.00,,SCT100,0.00,VWS V14.00,2013-07-07 10:48:00,
2013-07-07 03:54:00,56.3,37.9,29.35,NW,314,0.0,0.0,50,0.00,,SCT100,0.00,VWS V14.00,2013-07-07 10:54:00,
2013-07-07 03:59:00,56.3,38.4,29.35,NW,314,0.0,0.0,51,0.00,,SCT100,0.00,VWS V14.00,2013-07-07 10:59:00,
2013-07-07 04:04:00,56.3,38.4,29.35,NW,314,0.0,0.0,51,0.00,,SCT100,0.00,VWS V14.00,2013-07-07 11:04:00,
2013-07-07 04:10:00,56.3,38.4,29.35,NW,314,0.0,0.0,51,0.00,,SCT100,0.00,VWS V14.00,2013-07-07 11:10:00,
2013-07-07 04:15:00,56.3,38.4,29.35,NW,314,0.0,0.0,51,0.00,,SCT100,0.00,VWS V14.00,2013-07-07 11:15:00,
2013-07-07 04:21:00,56.3,38.9,29.35,NW,314,0.0,0.0,52,0.00,,SCT100,0.00,VWS V14.00,2013-07-07 11:21:00,
2013-07-07 04:26:00,56.3,38.9,29.35,NW,314,0.0,0.0,52,0.00,,SCT100,0.00,VWS V14.00,2013-07-07 11:26:00,
2013-07-07 04:32:00,56.1,38.8,29.35,NW,314,0.0,0.0,52,0.00,,SCT100,0.00,VWS V14.00,2013-07-07 11:32:00,
2013-07-07 04:37:00,56.1,38.8,29.35,NW,314,0.0,0.0,52,0.00,,SCT100,0.00,VWS V14.00,2013-07-07 11:37:00,
2013-07-07 04:43:00,56.1,38.8,29.35,NW,314,0.0,0.0,52,0.00,,SCT100,0.00,VWS V14.00,2013-07-07 11:43:00,
2013-07-07 04:49:00,56.1,39.2,29.35,NW,314,0.0,0.0,53,0.00,,SCT100,0.00,VWS V14.00,2013-07-07 11:49:00,
2013-07-07 04:54:00,55.9,39.1,29.35,NW,314,0.0,0.0,53,0.00,,SCT100,0.00,VWS V14.00,2013-07-07 11:54:00,
2013-07-07 05:00:00,55.9,39.1,29.35,NW,314,0.0,0.0,53,0.00,,SCT100,0.00,VWS V14.00,2013-07-07 12:00:00,
2013-07-07 05:05:00,55.9,39.1,29.35,NW,314,0.0,0.0,53,0.00,,CLR,0.00,VWS V14.00,2013-07-07 12:05:00,
2013-07-07 05:11:00,55.8,38.9,29.35,NW,314,0.0,0.0,53,0.00,,CLR,0.00,VWS V14.00,2013-07-07 12:11:00,
2013-07-07 05:17:00,55.8,39.4,29.38,NW,314,0.0,0.0,54,0.00,,CLR,0.00,VWS V14.00,2013-07-07 12:17:00,
2013-07-07 05:22:00,55.8,39.4,29.38,NW,314,0.0,0.0,54,0.00,,CLR,0.00,VWS V14.00,2013-07-07 12:22:00,
2013-07-07 05:27:00,55.8,39.4,29.38,NW,314,0.0,0.0,54,0.00,,CLR,0.00,VWS V14.00,2013-07-07 12:27:00,
2013-07-07 05:32:00,55.6,39.2,29.38,NW,314,0.0,0.0,54,0.00,,CLR,0.00,VWS V14.00,2013-07-07 12:32:00,
2013-07-07 05:38:00,55.6,39.7,29.38,NW,314,0.0,0.0,55,0.00,,CLR,0.00,VWS V14.00,2013-07-07 12:38:00,
2013-07-07 05:43:00,55.6,39.7,29.38,NW,314,0.0,0.0,55,0.00,,CLR,0.00,VWS V14.00,2013-07-07 12:43:00,
2013-07-07 05:49:00,55.4,39.5,29.38,NW,314,0.0,0.0,55,0.00,,CLR,0.00,VWS V14.00,2013-07-07 12:49:00,
2013-07-07 05:54:00,55.4,39.5,29.38,NW,314,0.0,0.0,55,0.00,,CLR,0.00,VWS V14.00,2013-07-07 12:54:00,
2013-07-07 06:00:00,55.2,39.3,29.38,NW,314,0.0,0.0,55,0.00,,CLR,0.00,VWS V14.00,2013-07-07 13:00:00,
2013-07-07 06:05:00,55.0,39.7,29.38,NW,314,0.0,0.0,56,0.00,,CLR,0.00,VWS V14.00,2013-07-07 13:05:00,
2013-07-07 06:10:00,55.2,39.8,29.38,NW,314,0.0,0.0,56,0.00,,CLR,0.00,VWS V14.00,2013-07-07 13:10:00,
2013-07-07 06:15:00,55.2,39.8,29.38,NW,323,0.0,0.0,56,0.00,,CLR,0.00,VWS V14.00,2013-07-07 13:15:00,
2013-07-07 06:21:00,55.2,40.3,29.38,NW,323,0.0,0.0,57,0.00,,CLR,0.00,VWS V14.00,2013-07-07 13:21:00,
2013-07-07 06:26:00,55.4,40.4,29.38,NW,323,0.0,0.0,57,0.00,,CLR,0.00,VWS V14.00,2013-07-07 13:26:00,
2013-07-07 06:31:00,55.8,40.8,29.38,NW,323,0.0,0.0,57,0.00,,CLR,0.00,VWS V14.00,2013-07-07 13:31:00,
2013-07-07 06:36:00,55.9,41.4,29.38,NW,323,0.0,0.0,58,0.00,,CLR,0.00,VWS V14.00,2013-07-07 13:36:00,
2013-07-07 06:42:00,56.3,42.2,29.38,NW,323,0.0,0.0,59,0.00,,CLR,0.00,VWS V14.00,2013-07-07 13:42:00,
2013-07-07 06:47:00,56.7,42.5,29.38,NW,323,0.0,0.0,59,0.00,,CLR,0.00,VWS V14.00,2013-07-07 13:47:00,
2013-07-07 06:52:00,56.8,43.1,29.38,NW,323,0.0,0.0,60,0.00,,CLR,0.00,VWS V14.00,2013-07-07 13:52:00,
2013-07-07 06:58:00,57.2,43.5,29.38,NW,323,0.0,0.0,60,0.00,,CLR,0.00,VWS V14.00,2013-07-07 13:58:00,
2013-07-07 07:03:00,57.6,43.8,29.38,NW,323,0.0,0.0,60,0.00,,CLR,0.00,VWS V14.00,2013-07-07 14:03:00,
2013-07-07 07:09:00,57.7,44.0,29.38,NW,323,0.0,0.0,60,0.00,,CLR,0.00,VWS V14.00,2013-07-07 14:09:00,
2013-07-07 07:14:00,58.1,44.3,29.38,NNE,19,2.2,2.2,60,0.00,,CLR,0.00,VWS V14.00,2013-07-07 14:14:00,
2013-07-07 07:20:00,58.3,44.5,29.38,North,6,0.0,0.0,60,0.00,,CLR,0.00,VWS V14.00,2013-07-07 14:20:00,
2013-07-07 07:25:00,58.5,44.6,29.38,North,6,0.0,0.0,60,0.00,,CLR,0.00,VWS V14.00,2013-07-07 14:25:00,
2013-07-07 07:31:00,58.6,44.4,29.38,North,6,0.0,0.0,59,0.00,,CLR,0.00,VWS V14.00,2013-07-07 14:31:00,
2013-07-07 07:37:00,58.8,44.5,29.38,North,6,0.0,0.0,59,0.00,,CLR,0.00,VWS V14.00,2013-07-07 14:37:00,
2013-07-07 07:42:00,58.8,44.1,29.38,North,6,0.0,0.0,58,0.00,,CLR,0.00,VWS V14.00,2013-07-07 14:42:00,
2013-07-07 07:47:00,59.0,44.3,29.38,NNE,17,2.7,3.1,58,0.00,,CLR,0.00,VWS V14.00,2013-07-07 14:47:00,
2013-07-07 07:52:00,59.4,44.1,29.38,NNE,17,0.0,0.0,57,0.00,,CLR,0.00,VWS V14.00,2013-07-07 14:52:00,
2013-07-07 07:58:00,59.7,44.5,29.38,NNE,17,0.0,0.0,57,0.00,,CLR,0.00,VWS V14.00,2013-07-07 14:58:00,
2013-07-07 08:03:00,59.9,44.2,29.38,NNE,28,0.0,0.0,56,0.00,,OVC008,0.00,VWS V14.00,2013-07-07 15:03:00,
2013-07-07 08:09:00,60.1,43.9,29.38,NNE,28,0.0,0.0,55,0.00,,OVC008,0.00,VWS V14.00,2013-07-07 15:09:00,
2013-07-07 08:14:00,60.3,43.6,29.38,North,11,0.0,2.7,54,0.00,,OVC008,0.00,VWS V14.00,2013-07-07 15:14:00,
2013-07-07 08:20:00,60.4,43.2,29.38,North,8,0.0,0.0,53,0.00,,OVC008,0.00,VWS V14.00,2013-07-07 15:20:00,
2013-07-07 08:25:00,60.6,43.4,29.38,NE,39,0.0,0.0,53,0.00,,OVC008,0.00,VWS V14.00,2013-07-07 15:25:00,
2013-07-07 08:30:00,60.6,42.9,29.38,NE,39,0.0,0.0,52,0.00,,OVC008,0.00,VWS V14.00,2013-07-07 15:30:00,
2013-07-07 08:35:00,60.8,43.1,29.38,SE,133,0.0,0.0,52,0.00,,OVC008,0.00,VWS V14.00,2013-07-07 15:35:00,
2013-07-07 08:41:00,60.6,42.4,29.38,North,11,0.0,0.0,51,0.00,,OVC008,0.00,VWS V14.00,2013-07-07 15:41:00,
2013-07-07 08:46:00,60.6,41.9,29.38,South,171,0.0,2.7,50,0.00,,OVC008,0.00,VWS V14.00,2013-07-07 15:46:00,
2013-07-07 08:52:00,60.6,41.9,29.38,South,171,0.0,0.0,50,0.00,,OVC008,0.00,VWS V14.00,2013-07-07 15:52:00,
2013-07-07 08:57:00,60.6,41.9,29.38,South,174,0.0,2.7,50,0.00,,OVC008,0.00,VWS V14.00,2013-07-07 15:57:00,
2013-07-07 09:03:00,60.6,41.9,29.38,South,175,0.0,0.0,50,0.00,,OVC008,0.00,VWS V14.00,2013-07-07 16:03:00,
2013-07-07 09:09:00,60.6,41.9,29.38,South,175,0.0,0.0,50,0.00,,OVC008,0.00,VWS V14.00,2013-07-07 16:09:00,
2013-07-07 09:15:00,60.8,41.5,29.38,South,174,0.0,2.2,49,0.00,,OVC008,0.00,VWS V14.00,2013-07-07 16:15:00,
2013-07-07 09:20:00,60.8,41.5,29.38,South,174,0.0,0.0,49,0.00,,OVC008,0.00,VWS V14.00,2013-07-07 16:20:00,
2013-07-07 09:26:00,61.0,41.7,29.38,SSE,150,2.7,3.6,49,0.00,,OVC008,0.00,VWS V14.00,2013-07-07 16:26:00,
2013-07-07 09:31:00,61.0,41.2,29.38,SE,124,0.0,0.0,48,0.00,,OVC008,0.00,VWS V14.00,2013-07-07 16:31:00,
2013-07-07 09:37:00,60.8,41.0,29.38,South,169,4.0,4.0,48,0.00,,OVC008,0.00,VWS V14.00,2013-07-07 16:37:00,
2013-07-07 09:43:00,60.8,41.0,29.38,SSE,165,0.0,0.0,48,0.00,,OVC008,0.00,VWS V14.00,2013-07-07 16:43:00,
2013-07-07 09:48:00,60.8,41.0,29.38,SSE,165,0.0,2.7,48,0.00,,OVC008,0.00,VWS V14.00,2013-07-07 16:48:00,
2013-07-07 09:53:00,61.0,41.2,29.38,South,169,0.0,2.2,48,0.00,,OVC008,0.00,VWS V14.00,2013-07-07 16:53:00,
2013-07-07 09:58:00,60.8,40.5,29.38,South,169,0.0,0.0,47,0.00,,OVC008,0.00,VWS V14.00,2013-07-07 16:58:00,
2013-07-07 10:04:00,61.0,41.2,29.38,West,259,0.0,0.0,48,0.00,,OVC008,0.00,VWS V14.00,2013-07-07 17:04:00,
2013-07-07 10:09:00,61.0,40.6,29.38,SSE,159,0.0,2.7,47,0.00,,OVC008,0.00,VWS V14.00,2013-07-07 17:09:00,
2013-07-07 10:15:00,61.0,40.6,29.38,SSE,159,0.0,0.0,47,0.00,,OVC008,0.00,VWS V14.00,2013-07-07 17:15:00,
2013-07-07 10:20:00,61.0,40.6,29.38,SSE,161,0.0,3.1,47,0.00,,OVC008,0.00,VWS V14.00,2013-07-07 17:20:00,
2013-07-07 10:26:00,61.0,40.6,29.38,SSE,161,0.0,0.0,47,0.00,,OVC008,0.00,VWS V14.00,2013-07-07 17:26:00,
2013-07-07 10:31:00,61.2,40.8,29.41,SSE,161,0.0,2.7,47,0.00,,OVC008,0.00,VWS V14.00,2013-07-07 17:31:00,
2013-07-07 10:36:00,61.3,41.0,29.41,SSE,161,0.0,0.0,47,0.00,,OVC008,0.00,VWS V14.00,2013-07-07 17:36:00,
2013-07-07 10:41:00,61.7,41.3,29.41,SSW,193,0.0,0.0,47,0.00,,OVC008,0.00,VWS V14.00,2013-07-07 17:41:00,
2013-07-07 10:47:00,61.7,40.7,29.41,South,178,2.7,2.7,46,0.00,,OVC008,0.00,VWS V14.00,2013-07-07 17:47:00,
2013-07-07 10:53:00,61.3,40.4,29.41,SSE,147,3.6,3.6,46,0.00,,OVC008,0.00,VWS V14.00,2013-07-07 17:53:00,
2013-07-07 10:58:00,61.0,40.1,29.41,SSE,151,0.0,2.7,46,0.00,,OVC008,0.00,VWS V14.00,2013-07-07 17:58:00,
2013-07-07 11:04:00,61.0,40.1,29.41,SSE,163,2.2,2.7,46,0.00,,OVC010,0.00,VWS V14.00,2013-07-07 18:04:00,
2013-07-07 11:09:00,61.2,40.8,29.41,SSE,158,0.0,0.0,47,0.00,,OVC010,0.00,VWS V14.00,2013-07-07 18:09:00,
2013-07-07 11:15:00,61.5,41.1,29.41,SSW,208,0.0,2.2,47,0.00,,OVC010,0.00,VWS V14.00,2013-07-07 18:15:00,
2013-07-07 11:20:00,61.7,40.7,29.41,SSW,208,0.0,0.0,46,0.00,,OVC010,0.00,VWS V14.00,2013-07-07 18:20:00,
2013-07-07 11:26:00,62.2,41.2,29.41,South,172,3.1,3.1,46,0.00,,OVC010,0.00,VWS V14.00,2013-07-07 18:26:00,
2013-07-07 11:32:00,62.1,40.5,29.41,SSE,156,3.1,3.6,45,0.00,,OVC010,0.00,VWS V14.00,2013-07-07 18:32:00,
2013-07-07 11:37:00,61.9,40.3,29.41,South,177,3.6,3.6,45,0.00,,OVC010,0.00,VWS V14.00,2013-07-07 18:37:00,
2013-07-07 11:42:00,61.9,40.3,29.41,SE,143,0.0,0.0,45,0.00,,OVC010,0.00,VWS V14.00,2013-07-07 18:42:00,
2013-07-07 11:47:00,62.1,40.5,29.41,SW,214,0.0,3.6,45,0.00,,OVC010,0.00,VWS V14.00,2013-07-07 18:47:00,
2013-07-07 11:53:00,62.6,41.0,29.41,South,171,2.7,3.6,45,0.00,,OVC010,0.00,VWS V14.00,2013-07-07 18:53:00,
2013-07-07 11:58:00,63.0,40.7,29.41,SSE,151,2.7,2.7,44,0.00,,OVC010,0.00,VWS V14.00,2013-07-07 18:58:00,
2013-07-07 12:04:00,63.1,40.9,29.41,North,2,0.0,0.0,44,0.00,,OVC012,0.00,VWS V14.00,2013-07-07 19:04:00,
2013-07-07 12:09:00,63.5,40.6,29.41,South,170,0.0,4.0,43,0.00,,OVC012,0.00,VWS V14.00,2013-07-07 19:09:00,
2013-07-07 12:15:00,63.5,40.6,29.41,SSE,168,0.0,0.0,43,0.00,,OVC012,0.00,VWS V14.00,2013-07-07 19:15:00,
2013-07-07 12:20:00,63.5,40.0,29.41,South,169,0.0,0.0,42,0.00,,OVC012,0.00,VWS V14.00,2013-07-07 19:20:00,
2013-07-07 12:26:00,63.9,40.3,29.41,North,7,0.0,0.0,42,0.00,,OVC012,0.00,VWS V14.00,2013-07-07 19:26:00,
2013-07-07 12:32:00,64.0,39.9,29.41,South,179,4.0,4.9,41,0.00,,OVC012,0.00,VWS V14.00,2013-07-07 19:32:00,
2013-07-07 12:37:00,63.9,39.1,29.41,SSE,157,2.2,2.2,40,0.00,,OVC012,0.00,VWS V14.00,2013-07-07 19:37:00,
2013-07-07 12:43:00,64.0,39.2,29.41,NNE,17,0.0,3.6,40,0.00,,OVC012,0.00,VWS V14.00,2013-07-07 19:43:00,
2013-07-07 12:49:00,64.4,39.6,29.41,North,357,0.0,3.6,40,0.00,,OVC012,0.00,VWS V14.00,2013-07-07 19:49:00,
2013-07-07 12:54:00,64.8,39.2,29.41,North,357,0.0,0.0,39,0.00,,OVC012,0.00,VWS V14.00,2013-07-07 19:54:00,
2013-07-07 13:00:00,65.5,40.5,29.38,North,349,0.0,2.7,40,0.00,,OVC012,0.00,VWS V14.00,2013-07-07 20:00:00,
2013-07-07 13:05:00,66.0,39.7,29.38,South,171,0.0,2.2,38,0.00,,BKN014,0.00,VWS V14.00,2013-07-07 20:05:00,
2013-07-07 13:10:00,66.2,39.2,29.38,ENE,64,0.0,0.0,37,0.00,,BKN014,0.00,VWS V14.00,2013-07-07 20:10:00,
2013-07-07 13:15:00,66.4,38.6,29.41,NNE,13,0.0,4.9,36,0.00,,BKN014,0.00,VWS V14.00,2013-07-07 20:15:00,
2013-07-07 13:21:00,66.9,39.1,29.41,North,2,0.0,0.0,36,0.00,,BKN014,0.00,VWS V14.00,2013-07-07 20:21:00,
2013-07-07 13:26:00,67.6,39.8,29.41,SSE,163,0.0,2.2,36,0.00,,BKN014,0.00,VWS V14.00,2013-07-07 20:26:00,
2013-07-07 13:32:00,67.8,39.2,29.38,SSE,168,0.0,3.1,35,0.00,,BKN014,0.00,VWS V14.00,2013-07-07 20:32:00,
2013-07-07 13:38:00,68.0,38.6,29.38,SSE,165,0.0,2.2,34,0.00,,BKN014,0.00,VWS V14.00,2013-07-07 20:38:00,
2013-07-07 13:43:00,67.5,38.1,29.38,SSE,167,0.0,0.0,34,0.00,,BKN014,0.00,VWS V14.00,2013-07-07 20:43:00,
2013-07-07 13:48:00,67.5,38.9,29.38,SSE,167,0.0,0.0,35,0.00,,BKN014,0.00,VWS V14.00,2013-07-07 20:48:00,
2013-07-07 13:53:00,67.5,38.9,29.38,NNE,24,0.0,0.0,35,0.00,,BKN014,0.00,VWS V14.00,2013-07-07 20:53:00,
2013-07-07 13:59:00,68.2,39.5,29.38,East,95,0.0,4.0,35,0.00,,BKN014,0.00,VWS V14.00,2013-07-07 20:59:00,
2013-07-07 14:04:00,68.5,39.1,29.38,SSE,167,0.0,3.6,34,0.00,,FEW018,0.00,VWS V14.00,2013-07-07 21:04:00,
2013-07-07 14:10:00,68.5,38.3,29.38,SSE,156,2.2,3.6,33,0.00,,FEW018,0.00,VWS V14.00,2013-07-07 21:10:00,
2013-07-07 14:15:00,68.5,38.3,29.38,ESE,118,0.0,0.0,33,0.00,,FEW018,0.00,VWS V14.00,2013-07-07 21:15:00,
2013-07-07 14:21:00,68.4,38.2,29.38,NNE,23,0.0,0.0,33,0.00,,FEW018,0.00,VWS V14.00,2013-07-07 21:21:00,
2013-07-07 14:26:00,68.4,38.9,29.38,SSE,166,3.1,3.1,34,0.00,,FEW018,0.00,VWS V14.00,2013-07-07 21:26:00,
2013-07-07 14:32:00,68.5,38.3,29.38,NNW,341,3.6,4.9,33,0.00,,FEW018,0.00,VWS V14.00,2013-07-07 21:32:00,
2013-07-07 14:38:00,69.1,39.6,29.38,SSE,156,0.0,4.0,34,0.00,,FEW018,0.00,VWS V14.00,2013-07-07 21:38:00,
2013-07-07 14:43:00,69.4,39.1,29.38,SSE,164,3.1,3.6,33,0.00,,FEW018,0.00,VWS V14.00,2013-07-07 21:43:00,
2013-07-07 14:49:00,70.0,38.8,29.38,SSE,165,2.2,3.1,32,0.00,,FEW018,0.00,VWS V14.00,2013-07-07 21:49:00,
2013-07-07 14:55:00,70.7,39.4,29.38,North,8,3.6,3.6,32,0.00,,FEW018,0.00,VWS V14.00,2013-07-07 21:55:00,
2013-07-07 15:00:00,70.9,39.6,29.38,SSW,195,0.0,2.2,32,0.00,,FEW018,0.00,VWS V14.00,2013-07-07 22:00:00,
2013-07-07 15:06:00,70.9,38.8,29.38,South,186,0.0,0.0,31,0.00,,CLR,0.00,VWS V14.00,2013-07-07 22:06:00,
2013-07-07 15:11:00,70.7,38.6,29.38,SSE,151,0.0,0.0,31,0.00,,CLR,0.00,VWS V14.00,2013-07-07 22:11:00,
2013-07-07 15:17:00,70.9,39.6,29.38,South,184,0.0,0.0,32,0.00,,CLR,0.00,VWS V14.00,2013-07-07 22:17:00,
2013-07-07 15:23:00,71.1,38.9,29.38,South,181,0.0,0.0,31,0.00,,CLR,0.00,VWS V14.00,2013-07-07 22:23:00,
2013-07-07 15:28:00,71.1,38.1,29.38,NNE,21,2.2,4.0,30,0.00,,CLR,0.00,VWS V14.00,2013-07-07 22:28:00,
2013-07-07 15:34:00,70.9,37.9,29.38,South,169,0.0,3.1,30,0.00,,CLR,0.00,VWS V14.00,2013-07-07 22:34:00,
2013-07-07 15:39:00,70.5,36.8,29.38,SE,132,0.0,0.0,29,0.00,,CLR,0.00,VWS V14.00,2013-07-07 22:39:00,
2013-07-07 15:45:00,70.7,38.6,29.38,SSE,154,0.0,2.7,31,0.00,,CLR,0.00,VWS V14.00,2013-07-07 22:45:00,
2013-07-07 15:51:00,71.2,39.1,29.38,SSW,198,0.0,2.2,31,0.00,,CLR,0.00,VWS V14.00,2013-07-07 22:51:00,
2013-07-07 15:56:00,71.4,37.5,29.38,SSE,152,2.2,2.2,29,0.00,,CLR,0.00,VWS V14.00,2013-07-07 22:56:00,
2013-07-07 16:01:00,71.6,37.7,29.38,North,357,3.1,3.1,29,0.00,,CLR,0.00,VWS V14.00,2013-07-07 23:01:00,
2013-07-07 16:06:00,71.6,36.8,29.38,NNE,21,0.0,0.0,28,0.00,,CLR,0.00,VWS V14.00,2013-07-07 23:06:00,
2013-07-07 16:11:00,72.0,38.9,29.38,South,191,4.0,4.0,30,0.00,,CLR,0.00,VWS V14.00,2013-07-07 23:11:00,
2013-07-07 16:17:00,72.5,39.3,29.38,South,182,0.0,0.0,30,0.00,,CLR,0.00,VWS V14.00,2013-07-07 23:17:00,
2013-07-07 16:23:00,72.9,37.0,29.38,South,182,0.0,0.0,27,0.00,,CLR,0.00,VWS V14.00,2013-07-07 23:23:00,
2013-07-07 16:28:00,73.0,37.1,29.38,WSW,253,0.0,2.2,27,0.00,,CLR,0.00,VWS V14.00,2013-07-07 23:28:00,
2013-07-07 16:34:00,73.6,36.6,29.38,South,178,0.0,0.0,26,0.00,,CLR,0.00,VWS V14.00,2013-07-07 23:34:00,
2013-07-07 16:40:00,73.8,35.8,29.38,SSE,163,0.0,0.0,25,0.00,,CLR,0.00,VWS V14.00,2013-07-07 23:40:00,
2013-07-07 16:45:00,73.6,34.6,29.38,ESE,115,0.0,0.0,24,0.00,,CLR,0.00,VWS V14.00,2013-07-07 23:45:00,
2013-07-07 16:51:00,73.6,34.6,29.38,NNE,28,0.0,2.2,24,0.00,,CLR,0.00,VWS V14.00,2013-07-07 23:51:00,
2013-07-07 16:56:00,73.9,34.9,29.38,NNE,18,2.7,3.6,24,0.00,,CLR,0.00,VWS V14.00,2013-07-07 23:56:00,
2013-07-07 17:02:00,74.1,35.1,29.35,East,81,0.0,0.0,24,0.00,,CLR,0.00,VWS V14.00,2013-07-08 00:02:00,
2013-07-07 17:08:00,73.9,34.9,29.35,South,169,0.0,3.1,24,0.00,,CLR,0.00,VWS V14.00,2013-07-08 00:08:00,
2013-07-07 17:13:00,73.9,34.9,29.35,ENE,69,0.0,2.2,24,0.00,,CLR,0.00,VWS V14.00,2013-07-08 00:13:00,
2013-07-07 17:19:00,73.9,34.9,29.35,East,89,0.0,0.0,24,0.00,,CLR,0.00,VWS V14.00,2013-07-08 00:19:00,
2013-07-07 17:24:00,73.9,33.8,29.35,North,0,2.7,3.1,23,0.00,,CLR,0.00,VWS V14.00,2013-07-08 00:24:00,
2013-07-07 17:29:00,73.9,33.8,29.35,SSE,167,4.0,4.0,23,0.00,,CLR,0.00,VWS V14.00,2013-07-08 00:29:00,
2013-07-07 17:34:00,73.8,33.7,29.35,SSW,209,2.2,3.6,23,0.00,,CLR,0.00,VWS V14.00,2013-07-08 00:34:00,
2013-07-07 17:40:00,73.8,33.7,29.35,SSE,154,0.0,0.0,23,0.00,,CLR,0.00,VWS V14.00,2013-07-08 00:40:00,
2013-07-07 17:45:00,73.9,33.8,29.35,SSE,147,3.1,4.0,23,0.00,,CLR,0.00,VWS V14.00,2013-07-08 00:45:00,
2013-07-07 17:50:00,74.1,34.0,29.35,South,179,0.0,2.7,23,0.00,,CLR,0.00,VWS V14.00,2013-07-08 00:50:00,
2013-07-07 17:56:00,74.3,34.1,29.35,SE,143,0.0,2.7,23,0.00,,CLR,0.00,VWS V14.00,2013-07-08 00:56:00,
2013-07-07 18:02:00,74.3,34.1,29.35,NNE,13,0.0,3.6,23,0.00,,CLR,0.00,VWS V14.00,2013-07-08 01:02:00,
2013-07-07 18:07:00,74.5,34.3,29.35,SSE,155,2.7,3.1,23,0.00,,CLR,0.00,VWS V14.00,2013-07-08 01:07:00,
2013-07-07 18:12:00,74.3,34.1,29.35,ESE,118,0.0,3.1,23,0.00,,CLR,0.00,VWS V14.00,2013-07-08 01:12:00,
2013-07-07 18:18:00,74.7,34.4,29.35,NW,309,0.0,0.0,23,0.00,,CLR,0.00,VWS V14.00,2013-07-08 01:18:00,
2013-07-07 18:23:00,74.8,33.5,29.35,SSW,198,0.0,0.0,22,0.00,,CLR,0.00,VWS V14.00,2013-07-08 01:23:00,
2013-07-07 18:29:00,74.8,33.5,29.35,SSE,162,0.0,0.0,22,0.00,,CLR,0.00,VWS V14.00,2013-07-08 01:29:00,
2013-07-07 18:34:00,74.8,33.5,29.35,North,350,0.0,0.0,22,0.00,,CLR,0.00,VWS V14.00,2013-07-08 01:34:00,
2013-07-07 18:40:00,74.5,33.2,29.35,SE,141,2.2,3.1,22,0.00,,CLR,0.00,VWS V14.00,2013-07-08 01:40:00,
2013-07-07 18:45:00,74.3,33.0,29.35,South,177,0.0,4.0,22,0.00,,CLR,0.00,VWS V14.00,2013-07-08 01:45:00,
2013-07-07 18:51:00,74.3,33.0,29.35,SW,217,0.0,0.0,22,0.00,,CLR,0.00,VWS V14.00,2013-07-08 01:51:00,
2013-07-07 18:57:00,74.7,33.3,29.35,SW,218,0.0,0.0,22,0.00,,CLR,0.00,VWS V14.00,2013-07-08 01:57:00,
2013-07-07 19:02:00,75.0,33.6,29.35,South,176,2.2,2.2,22,0.00,,CLR,0.00,VWS V14.00,2013-07-08 02:02:00,
2013-07-07 19:08:00,75.0,33.6,29.35,SSE,164,0.0,2.7,22,0.00,,CLR,0.00,VWS V14.00,2013-07-08 02:08:00,
2013-07-07 19:14:00,74.5,33.2,29.35,South,180,0.0,0.0,22,0.00,,CLR,0.00,VWS V14.00,2013-07-08 02:14:00,
2013-07-07 19:19:00,73.8,32.6,29.35,South,173,0.0,0.0,22,0.00,,CLR,0.00,VWS V14.00,2013-07-08 02:19:00,
2013-07-07 19:25:00,72.7,31.7,29.35,South,184,0.0,2.2,22,0.00,,CLR,0.00,VWS V14.00,2013-07-08 02:25:00,
2013-07-07 19:30:00,72.3,32.5,29.35,North,0,0.0,3.1,23,0.00,,CLR,0.00,VWS V14.00,2013-07-08 02:30:00,
2013-07-07 19:36:00,71.8,32.0,29.35,South,179,2.2,3.6,23,0.00,,CLR,0.00,VWS V14.00,2013-07-08 02:36:00,
2013-07-07 19:41:00,71.4,32.8,29.35,South,176,0.0,0.0,24,0.00,,CLR,0.00,VWS V14.00,2013-07-08 02:41:00,
2013-07-07 19:47:00,71.2,32.6,29.35,SSE,160,0.0,3.6,24,0.00,,CLR,0.00,VWS V14.00,2013-07-08 02:47:00,
2013-07-07 19:52:00,71.1,32.5,29.35,SSE,160,0.0,0.0,24,0.00,,CLR,0.00,VWS V14.00,2013-07-08 02:52:00,
2013-07-07 19:57:00,70.9,33.3,29.35,SSE,159,0.0,0.0,25,0.00,,CLR,0.00,VWS V14.00,2013-07-08 02:57:00,
2013-07-07 20:03:00,70.7,33.2,29.38,South,182,0.0,0.0,25,0.00,,CLR,0.00,VWS V14.00,2013-07-08 03:03:00,
2013-07-07 20:08:00,70.5,34.0,29.38,South,182,0.0,0.0,26,0.00,,CLR,0.00,VWS V14.00,2013-07-08 03:08:00,
2013-07-07 20:13:00,70.2,34.7,29.38,SSW,194,0.0,0.0,27,0.00,,CLR,0.00,VWS V14.00,2013-07-08 03:13:00,
2013-07-07 20:18:00,70.0,34.5,29.38,South,186,0.0,3.6,27,0.00,,CLR,0.00,VWS V14.00,2013-07-08 03:18:00,
2013-07-07 20:24:00,69.6,35.1,29.38,South,186,0.0,0.0,28,0.00,,CLR,0.00,VWS V14.00,2013-07-08 03:24:00,
2013-07-07 20:30:00,69.4,35.0,29.38,South,186,0.0,0.0,28,0.00,,CLR,0.00,VWS V14.00,2013-07-08 03:30:00,
2013-07-07 20:36:00,69.1,36.4,29.38,South,186,0.0,0.0,30,0.00,,CLR,0.00,VWS V14.00,2013-07-08 03:36:00,
2013-07-07 20:41:00,68.7,36.9,29.38,South,186,0.0,0.0,31,0.00,,CLR,0.00,VWS V14.00,2013-07-08 03:41:00,
2013-07-07 20:46:00,68.4,37.4,29.38,South,186,0.0,0.0,32,0.00,,CLR,0.00,VWS V14.00,2013-07-08 03:46:00,
2013-07-07 20:51:00,68.0,37.1,29.38,South,186,0.0,0.0,32,0.00,,CLR,0.00,VWS V14.00,2013-07-08 03:51:00,
2013-07-07 20:57:00,67.5,37.4,29.38,South,186,0.0,0.0,33,0.00,,CLR,0.00,VWS V14.00,2013-07-08 03:57:00,
2013-07-07 21:01:00,66.9,36.9,29.38,South,186,0.0,0.0,33,0.00,,CLR,0.00,VWS V14.00,2013-07-08 04:01:00,
2013-07-07 21:03:00,66.7,36.8,29.38,South,186,0.0,0.0,33,0.00,,CLR,0.00,VWS V14.00,2013-07-08 04:03:00,
2013-07-07 21:05:00,66.6,36.6,29.38,South,186,0.0,0.0,33,0.00,,CLR,0.00,VWS V14.00,2013-07-08 04:05:00,
2013-07-07 21:06:00,66.4,36.4,29.38,South,186,0.0,0.0,33,0.00,,CLR,0.00,VWS V14.00,2013-07-08 04:06:00,
2013-07-07 21:10:00,66.0,36.9,29.38,South,186,0.0,0.0,34,0.00,,CLR,0.00,VWS V14.00,2013-07-08 04:10:00,
2013-07-07 21:15:00,65.5,37.1,29.38,South,186,0.0,0.0,35,0.00,,CLR,0.00,VWS V14.00,2013-07-08 04:15:00,
2013-07-07 21:21:00,64.9,36.7,29.38,South,186,0.0,0.0,35,0.00,,CLR,0.00,VWS V14.00,2013-07-08 04:21:00,
2013-07-07 21:26:00,64.6,37.0,29.38,South,186,0.0,0.0,36,0.00,,CLR,0.00,VWS V14.00,2013-07-08 04:26:00,
2013-07-07 21:31:00,64.4,37.6,29.38,South,186,0.0,0.0,37,0.00,,CLR,0.00,VWS V14.00,2013-07-08 04:31:00,
2013-07-07 21:36:00,64.0,37.9,29.38,South,186,0.0,0.0,38,0.00,,CLR,0.00,VWS V14.00,2013-07-08 04:36:00,
2013-07-07 21:42:00,63.7,38.3,29.38,South,186,0.0,0.0,39,0.00,,CLR,0.00,VWS V14.00,2013-07-08 04:42:00,
2013-07-07 21:47:00,63.5,38.1,29.38,South,186,0.0,0.0,39,0.00,,CLR,0.00,VWS V14.00,2013-07-08 04:47:00,
2013-07-07 21:53:00,63.1,38.5,29.38,South,186,0.0,0.0,40,0.00,,CLR,0.00,VWS V14.00,2013-07-08 04:53:00,
2013-07-07 21:59:00,62.8,38.8,29.38,South,186,0.0,0.0,41,0.00,,CLR,0.00,VWS V14.00,2013-07-08 04:59:00,
2013-07-07 22:04:00,62.6,39.2,29.38,South,186,0.0,0.0,42,0.00,,OVC085,0.00,VWS V14.00,2013-07-08 05:04:00,
2013-07-07 22:09:00,62.4,40.2,29.38,South,186,0.0,0.0,44,0.00,,OVC085,0.00,VWS V14.00,2013-07-08 05:09:00,
2013-07-07 22:14:00,62.2,40.1,29.38,South,186,0.0,0.0,44,0.00,,OVC085,0.00,VWS V14.00,2013-07-08 05:14:00,
2013-07-07 22:20:00,62.2,40.1,29.38,South,186,0.0,0.0,44,0.00,,OVC085,0.00,VWS V14.00,2013-07-08 05:20:00,
2013-07-07 22:25:00,62.4,40.8,29.38,South,186,0.0,0.0,45,0.00,,OVC085,0.00,VWS V14.00,2013-07-08 05:25:00,
2013-07-07 22:31:00,62.8,41.2,29.38,South,186,0.0,0.0,45,0.00,,OVC085,0.00,VWS V14.00,2013-07-08 05:31:00,
2013-07-07 22:37:00,63.1,41.5,29.38,South,186,0.0,0.0,45,0.00,,OVC085,0.00,VWS V14.00,2013-07-08 05:37:00,
2013-07-07 22:42:00,63.5,41.8,29.38,South,176,3.1,3.1,45,0.00,,OVC085,0.00,VWS V14.00,2013-07-08 05:42:00,
2013-07-07 22:47:00,63.9,41.5,29.38,SSE,168,0.0,0.0,44,0.00,,OVC085,0.00,VWS V14.00,2013-07-08 05:47:00,
2013-07-07 22:52:00,63.9,41.5,29.38,SSW,193,0.0,0.0,44,0.00,,OVC085,0.00,VWS V14.00,2013-07-08 05:52:00,
2013-07-07 22:58:00,63.9,41.0,29.38,SSW,193,0.0,0.0,43,0.00,,OVC085,0.00,VWS V14.00,2013-07-08 05:58:00,
2013-07-07 23:03:00,63.7,40.2,29.38,South,169,0.0,0.0,42,0.00,,SCT090,0.00,VWS V14.00,2013-07-08 06:03:00,
2013-07-07 23:09:00,63.5,40.0,29.38,SSE,165,0.0,0.0,42,0.00,,SCT090,0.00,VWS V14.00,2013-07-08 06:09:00,
2013-07-07 23:14:00,63.1,39.7,29.38,SSE,165,0.0,0.0,42,0.00,,SCT090,0.00,VWS V14.00,2013-07-08 06:14:00,
2013-07-07 23:20:00,62.8,39.4,29.38,SSE,165,0.0,0.0,42,0.00,,SCT090,0.00,VWS V14.00,2013-07-08 06:20:00,
2013-07-07 23:25:00,62.4,39.0,29.38,SSE,165,0.0,0.0,42,0.00,,SCT090,0.00,VWS V14.00,2013-07-08 06:25:00,
2013-07-07 23:31:00,62.1,38.7,29.38,SSE,164,0.0,0.0,42,0.00,,SCT090,0.00,VWS V14.00,2013-07-08 06:31:00,
2013-07-07 23:36:00,61.7,39.0,29.38,SSE,165,0.0,0.0,43,0.00,,SCT090,0.00,VWS V14.00,2013-07-08 06:36:00,
2013-07-07 23:41:00,61.3,38.7,29.38,SSE,165,0.0,0.0,43,0.00,,SCT090,0.00,VWS V14.00,2013-07-08 06:41:00,
2013-07-07 23:47:00,61.0,38.3,29.38,SSE,164,0.0,0.0,43,0.00,,SCT090,0.00,VWS V14.00,2013-07-08 06:47:00,
2013-07-07 23:52:00,60.6,38.6,29.38,SSE,165,0.0,0.0,44,0.00,,SCT090,0.00,VWS V14.00,2013-07-08 06:52:00,
2013-07-07 23:58:00,60.3,38.3,29.41,SSE,165,0.0,0.0,44,0.00,,SCT090,0.00,VWS V14.00,2013-07-08 06:58:00,